Simultaneous Nadir Overpasses (SNOs) Predictions

Prediction of SNOs between METOP-B and NOAA-19 Satellite Orbit:

Table of predicted SNOs for the next 14.0 days since TLE Epoch: 1/28/2023
Index Date (METOP-B) Time (METOP-B) Lat,Lon (METOP-B) SZA (METOP-B ) Date (NOAA-19) Time (NOAA-19) Lat,Lon (NOAA-19) SZA (NOAA-19 ) Distance(km) Time Diff (sec)
1 02/07/2023 03:09:22 -80.92, -12.42 82.43 02/07/2023 03:08:13 -80.93, -12.42 82.45 0.21 69
2 02/07/2023 04:00:02 80.93, 155.02 97.58 02/07/2023 03:59:14 80.93, 155.02 97.56 0.42 48
3 02/07/2023 04:50:43 -80.93, -37.58 82.43 02/07/2023 04:50:12 -80.93, -37.75 82.46 3.13 31
4 02/07/2023 05:41:24 80.92, 129.50 97.54 02/07/2023 05:41:14 80.93, 129.32 97.53 3.19 10
5 02/07/2023 06:32:05 -80.92, -63.09 82.47 02/07/2023 06:32:11 -80.93, -63.08 82.46 0.26 6
6 02/07/2023 07:22:45 80.93, 104.35 97.54 02/07/2023 07:23:12 80.93, 104.38 97.55 0.66 27
7 02/07/2023 08:13:26 -80.93, -88.25 82.47 02/07/2023 08:14:10 -80.93, -88.41 82.47 3.00 44



Historial Predications of SNOs between METOP-B and NOAA-19
